Amendola, Italy

11:38 AM CEST on August 24, 2016 (GMT +0200)
Amendola Mil

Weather History for LIBA - September, 2013

Change the Weather History Date:

Wednesday, September 25, 2013

  Actual Average Record
Temperature  
Mean Temperature 71 °F -  
Max Temperature 86 °F 74 °F 88 °F (2012)
Min Temperature 56 °F 54 °F 53 °F (2015)
Cooling Degree Days 6    
Growing Degree Days 21 (Base 50)    
Moisture  
Dew Point 55 °F    
Average Humidity 55    
Maximum Humidity 100    
Minimum Humidity 19    
Precipitation  
Precipitation 0.00 in 0.07 in - ()
Sea Level Pressure  
Sea Level Pressure 29.97 in    
Wind  
Wind Speed 1 mph ()    
Max Wind Speed 7 mph    
Max Gust Speed -    
Visibility 11.4 miles    
Events      
Averages and records for this station are not official NWS values.
T = Trace of Precipitation, MM = Missing Value Source: Averaged Metar Reports

Daily Weather History Graph

Daily Weather History Graph

Search for Another Location

Airport or City:

Trip Planner

Search our weather history database for the weather conditions in past years. The results will help you decide how hot, cold, wet, or windy it might be!

Date:

Astronomy

Sep. 25, 2013 Rise Set
Actual Time 6:47 AM CEST 6:49 PM CEST
Civil Twilight 6:20 AM CEST 7:16 PM CEST
Nautical Twilight 5:47 AM CEST 7:49 PM CEST
Astronomical Twilight 5:14 AM CEST 8:21 PM CEST
Moon 10:37 PM CEST (9/25) 12:42 PM CEST (9/25)
Length of Visible Light 12h 56m
Length of Day
12h 01m
Waning Gibbous, 66% of the Moon is Illuminated
Sep 25
Waning Gibbous
Sep 27
Last Quarter
Oct 5
New
Oct 12
First Quarter
Oct 19
Full

Hourly Weather History & Observations

Time (CEST) Temp. Heat Index Dew Point Humidity Pressure Visibility Wind Dir Wind Speed Gust Speed Precip Events Conditions
5:55 AM 57.2 °F - 57.2 °F 100% 29.95 in - WSW 2.3 mph - N/A   Clear
6:55 AM 57.2 °F - 51.8 °F 82% 29.98 in - Calm Calm - N/A   Clear
7:55 AM 59.0 °F - 53.6 °F 82% 29.98 in - Calm Calm - N/A   Clear
8:00 AM 58 °F - 54 °F 81% 29.99 in 12 mi Calm Calm - -  
8:55 AM 64.4 °F - 53.6 °F 68% 29.98 in - Calm Calm - N/A   Clear
9:55 AM 71.6 °F - 55.4 °F 57% 29.98 in - WSW 1.2 mph - N/A   Clear
10:55 AM 77.0 °F - 50.0 °F 39% 30.01 in - Calm Calm - N/A   Clear
11:00 AM 76 °F - 50 °F 29% 30.02 in 12 mi Calm Calm - -  
11:55 AM 78.8 °F - 50.0 °F 36% 29.98 in - SW 1.2 mph - N/A   Clear
12:55 PM 82.4 °F - 46.4 °F 28% 29.98 in - SW 1.2 mph - N/A   Clear
1:55 PM 84.2 °F - 48.2 °F 29% 29.95 in - SSW 2.3 mph - N/A   Clear
2:00 PM 83 °F - 48 °F 19% 29.96 in 12 mi SSW 2.3 mph - -  
2:55 PM 86.0 °F - 48.2 °F 27% 29.95 in - SW 2.3 mph - N/A   Clear
3:55 PM 82.4 °F 81.4 °F 53.6 °F 37% 29.95 in - East 6.9 mph - N/A   Clear
4:55 PM 77.0 °F - 59.0 °F 54% 29.95 in - East 6.9 mph - N/A   Clear
5:00 PM 78 °F - 60 °F 43% 29.95 in 12 mi East 6.9 mph - -   Clear
5:55 PM 75.2 °F - 59.0 °F 57% 29.95 in - East 4.6 mph - N/A   Clear
6:55 PM 71.6 °F - 60.8 °F 69% 29.95 in - East 3.5 mph - N/A   Clear
7:55 PM 69.8 °F - 66.2 °F 88% 29.95 in - Calm Calm - N/A   Clear
8:00 PM 71 °F - 66 °F 80% 29.96 in 9 mi Calm Calm - -   Clear